Regional Weather Roundup
Issued by NWS

Home | Current Version | Previous Version | Text Only | Print | Product List | Glossary On
Versions: 1 2 3 4 5 6 7 8 9 10 11 12 13 14 15 16 17 18 19 20 21 22 23 24 25 26 27 28 29 30 31 32 33 34 35 36 37 38 39 40 41 42 43 44 45 46 47 48 49 50
000
ASUS43 KLSX 181657
RWRMO

WEATHER SUMMARY FOR MISSOURI
NATIONAL WEATHER SERVICE SPRINGFIELD MO
1200 PM CDT WED OCT 18 2017

NOTE: "FAIR" INDICATES FEW OR NO CLOUDS BELOW 12,000 FEET WITH NO
       SIGNIFICANT WEATHER AND/OR OBSTRUCTIONS TO VISIBILITY.
       CURRENT SKY AND/OR WEATHER CONDITIONS ARE NOT AVAILABLE FOR
       CHILLICOTHE AND FARMINGTON.

MOZ001>031-035>038-043-044-053-054-181800-
...NORTHERN AND WESTERN MISSOURI...

CITY           SKY/WX    TMP DP  RH WIND       PRES   REMARKS
KANSAS CTY INT MOSUNNY   67  47  48 SW18G26   30.02F
LEE`S SUMMIT   SUNNY     68  47  46 SW18G25   30.06F
ST JOSEPH      SUNNY     69  47  45 S15G21    30.00F
CHILLICOTHE      N/A     66  48  52 S13       30.06F

$$
MOZ066>068-077>081-088>096-101>105-181800-
...SOUTHWEST MISSOURI...

CITY           SKY/WX    TMP DP  RH WIND       PRES   REMARKS
SPRINGFIELD    SUNNY     68  43  40 S16       30.15F
JOPLIN         SUNNY     69  46  43 S18       30.12F
BRANSON        SUNNY     68  41  37 SE5       30.19F

$$
MOZ032>034-039>042-045>050-055>058-069>072-181800-
...CENTRAL MISSOURI...

CITY           SKY/WX    TMP DP  RH WIND       PRES   REMARKS
COLUMBIA       NOT AVBL
JEFFERSON CITY SUNNY     67  43  41 S8        30.13F
ROLLA          SUNNY     67  42  40 S12       30.17F
SEDALIA        SUNNY     69  47  45 SW14G22   30.11F
WARRENSBURG    SUNNY     66  45  45 S9G18     30.08F

$$
MOZ051-052-059>065-181800-
...EAST CENTRAL MISSOURI...

CITY           SKY/WX    TMP DP  RH WIND       PRES   REMARKS
ST LOUIS INTL  MOSUNNY   68  44  42 SW12      30.18F

$$
MOZ072>076-082>087-097>100-106>115-181800-
...SOUTH CENTRAL AND SOUTHEAST MISSOURI...

CITY           SKY/WX    TMP DP  RH WIND       PRES   REMARKS
CAPE GIRARDEAU SUNNY     68  47  46 SW13G20   30.25F
POPLAR BLUFF   SUNNY     68  49  50 SW12      30.24F
WEST PLAINS    SUNNY     69  43  38 SW9G18    30.21F

$$



USA.gov is the U.S. government's official web portal to all federal, state and local government web resources and services.